Location: Unspecified
(43.0000°N, 0.0000°E)
Time: 08:57:01
(UTC+00:00)

PicSat - Pass Details

Date: 22 July 2019
Orbit: 486 x 500 km, 97.5° (Epoch: 21 August)

Event Time Altitude Azimuth Distance (km) Brightness Sun altitude
Exits shadow 21:21:37 36° 133° (SE) 799 ? -16.3°
Maximum altitude 21:22:49 56° 75° (ENE) 595 ? -16.5°
Drops below altitude 10° 21:26:24 10° 356° (N) 1,696 ? -16.9°
Sets 21:28:30 0° 352° (N) 2,581 ? -17.1°
